Weather History for KASJ - March, 2013

Change the Weather History Date:

Friday, March 15, 2013

  Actual Average (KEMV) Record (KEMV)
Temperature  
Mean Temperature 42 °F -  
Max Temperature 60 °F 58 °F 83 °F (1990)
Min Temperature 25 °F 34 °F 17 °F (1993)
Degree Days  
Heating Degree Days 22    
Moisture  
Dew Point 25 °F    
Average Humidity 50    
Maximum Humidity 85    
Minimum Humidity 21    
Precipitation  
Precipitation 0.00 in - - ()
Sea Level Pressure  
Sea Level Pressure 30.04 in    
Wind  
Wind Speed 1 mph (SSW)    
Max Wind Speed 5 mph    
Max Gust Speed -    
Visibility 10 miles    
Events      
Averages and records for this station are not official NWS values.
T = Trace of Precipitation, MM = Missing Value Source: NWS Daily Summary

Daily Weather History Graph

Daily Weather History Graph

Search for Another Location

Airport or City:

Trip Planner

Search our weather history database for the weather conditions in past years. The results will help you decide how hot, cold, wet, or windy it might be!

Date:

Astronomy

Mar. 15, 2013 Rise Set
Actual Time 7:19 AM EDT 7:16 PM EDT
Civil Twilight 6:53 AM EDT 7:41 PM EDT
Nautical Twilight 6:23 AM EDT 8:11 PM EDT
Astronomical Twilight 5:53 AM EDT 8:42 PM EDT
Moon 9:15 AM EDT (3/15) 11:19 PM EDT (3/15)
Length of Visible Light 12h 48m
Length of Day
11h 57m
Waxing Crescent, 15% of the Moon is Illuminated
Mar 15
Waxing Crescent
Mar 19
First Quarter
Mar 27
Full
Apr 3
Last Quarter
Apr 10
New

Hourly Weather History & Observations

Time (EDT) Temp. Dew Point Humidity Pressure Visibility Wind Dir Wind Speed Gust Speed Precip Events Conditions
12:15 AM 37.0 °F 19.0 °F 48% 30.14 in 10.0 mi Calm Calm - N/A   Clear
12:35 AM 37.4 °F 18.0 °F 45% 30.14 in 10.0 mi Calm Calm - N/A   Clear
12:55 AM 36.5 °F 17.4 °F 46% 30.14 in 10.0 mi Calm Calm - N/A   Clear
1:15 AM 35.1 °F 18.7 °F 51% 30.15 in 10.0 mi Calm Calm - N/A   Clear
1:35 AM 33.8 °F 20.3 °F 58% 30.15 in 10.0 mi Calm Calm - N/A   Clear
1:55 AM 33.4 °F 20.5 °F 59% 30.15 in 10.0 mi Calm Calm - N/A   Clear
2:15 AM 32.5 °F 21.0 °F 63% 30.15 in 10.0 mi Calm Calm - N/A   Clear
2:35 AM 30.2 °F 20.7 °F 68% 30.16 in 10.0 mi Calm Calm - N/A   Clear
2:55 AM 30.6 °F 21.2 °F 68% 30.15 in 10.0 mi Calm Calm - N/A   Clear
3:15 AM 32.5 °F 21.0 °F 63% 30.15 in 10.0 mi Calm Calm - N/A   Clear
3:55 AM 30.2 °F 23.5 °F 76% 30.14 in 10.0 mi Calm Calm - N/A   Clear
4:15 AM 30.2 °F 23.4 °F 76% 30.14 in 10.0 mi Calm Calm - N/A   Clear
4:55 AM 28.0 °F 22.8 °F 81% 30.14 in 10.0 mi Calm Calm - N/A   Clear
5:15 AM 27.9 °F 22.6 °F 81% 30.14 in 10.0 mi Calm Calm - N/A   Clear
5:35 AM 27.0 °F 22.6 °F 84% 30.15 in 10.0 mi Calm Calm - N/A   Clear
5:55 AM 25.3 °F 21.4 °F 85% 30.15 in 10.0 mi Calm Calm - N/A   Clear
6:15 AM 25.9 °F 21.6 °F 84% 30.15 in 10.0 mi Calm Calm - N/A   Clear
6:35 AM 26.4 °F 21.7 °F 82% 30.16 in 10.0 mi Calm Calm - N/A   Clear
6:55 AM 25.3 °F 21.2 °F 84% 30.17 in 10.0 mi Calm Calm - N/A   Clear
7:15 AM 25.3 °F 21.0 °F 84% 30.16 in 10.0 mi Calm Calm - N/A   Clear
7:35 AM 25.3 °F 21.4 °F 85% 30.16 in 10.0 mi Calm Calm - N/A   Clear
7:55 AM 25.3 °F 21.0 °F 84% 30.16 in 10.0 mi Calm Calm - N/A   Clear
8:15 AM 28.9 °F 24.6 °F 84% 30.17 in 10.0 mi Calm Calm - N/A   Clear
8:55 AM 34.7 °F 26.8 °F 73% 30.17 in 10.0 mi Calm Calm - N/A   Clear
9:15 AM 36.7 °F 25.3 °F 64% 30.17 in 10.0 mi Calm Calm - N/A   Clear
9:35 AM 39.2 °F 25.3 °F 58% 30.17 in 10.0 mi Calm Calm - N/A   Clear
9:55 AM 44.1 °F 24.6 °F 46% 30.17 in 10.0 mi Calm Calm - N/A   Clear
10:15 AM 45.1 °F 20.5 °F 38% 30.15 in 10.0 mi Calm Calm - N/A   Clear
10:35 AM 45.1 °F 17.2 °F 33% 30.15 in 10.0 mi Calm Calm - N/A   Clear
11:55 AM 50.0 °F 14.4 °F 24% 30.10 in 10.0 mi Calm Calm - N/A   Clear
12:15 PM 50.9 °F 15.1 °F 24% 30.10 in 10.0 mi SSW 4.6 mph - N/A   Clear
12:35 PM 52.5 °F 13.6 °F 21% 30.09 in 10.0 mi SSW 3.5 mph - N/A   Clear
12:55 PM 52.7 °F 14.9 °F 22% 30.08 in 10.0 mi SW 3.5 mph - N/A   Clear
1:15 PM 54.1 °F 16.3 °F 23% 30.06 in 10.0 mi Calm Calm - N/A   Clear
1:35 PM 54.5 °F 17.6 °F 23% 30.05 in 10.0 mi SW 3.5 mph - N/A   Clear
1:55 PM 55.0 °F 17.6 °F 23% 30.03 in 10.0 mi SW 4.6 mph - N/A   Clear
2:15 PM 56.3 °F 20.8 °F 25% 30.02 in 10.0 mi Calm Calm - N/A   Clear
2:35 PM 56.7 °F 22.3 °F 26% 30.00 in 10.0 mi WSW 4.6 mph - N/A   Clear
2:55 PM 57.6 °F 23.7 °F 27% 29.99 in 10.0 mi SW 4.6 mph - N/A   Clear
3:15 PM 56.3 °F 24.8 °F 30% 29.98 in 10.0 mi Calm Calm - N/A   Clear
3:35 PM 57.4 °F 27.5 °F 32% 29.96 in 10.0 mi SW 3.5 mph - N/A   Clear
3:55 PM 60.1 °F 29.3 °F 31% 29.95 in 10.0 mi SW 4.6 mph - N/A   Clear
4:15 PM 59.2 °F 29.5 °F 32% 29.94 in 10.0 mi SSW 3.5 mph - N/A   Clear
4:35 PM 58.1 °F 29.5 °F 34% 29.93 in 10.0 mi Calm Calm - N/A   Clear
4:55 PM 58.1 °F 29.7 °F 34% 29.93 in 10.0 mi Calm Calm - N/A   Clear
5:15 PM 58.1 °F 30.9 °F 36% 29.93 in 10.0 mi Calm Calm - N/A   Clear
5:35 PM 57.6 °F 32.0 °F 38% 29.92 in 10.0 mi Calm Calm - N/A   Clear
5:55 PM 56.8 °F 30.7 °F 37% 29.92 in 10.0 mi SW 3.5 mph - N/A   Clear
6:15 PM 56.3 °F 31.1 °F 38% 29.92 in 10.0 mi Calm Calm - N/A   Clear
6:35 PM 55.0 °F 31.1 °F 40% 29.91 in 10.0 mi Calm Calm - N/A   Clear
6:55 PM 55.0 °F 30.9 °F 40% 29.91 in 10.0 mi Calm Calm - N/A   Clear
7:15 PM 55.0 °F 30.6 °F 39% 29.91 in 10.0 mi SSW 3.5 mph - N/A   Clear
7:35 PM 55.0 °F 31.8 °F 41% 29.91 in 10.0 mi SSW 3.5 mph - N/A   Clear
7:55 PM 55.0 °F 31.3 °F 40% 29.91 in 10.0 mi SSW 3.5 mph - N/A   Clear
8:15 PM 55.0 °F 31.6 °F 41% 29.91 in 10.0 mi SSW 3.5 mph - N/A   Clear
8:35 PM 52.7 °F 30.4 °F 42% 29.91 in 10.0 mi SSW 3.5 mph - N/A   Clear
8:55 PM 53.2 °F 29.8 °F 41% 29.91 in 10.0 mi SSW 3.5 mph - N/A   Clear
9:15 PM 53.4 °F 29.7 °F 40% 29.91 in 10.0 mi SSW 3.5 mph - N/A   Clear
9:35 PM 52.7 °F 30.2 °F 42% 29.91 in 10.0 mi SSW 3.5 mph - N/A   Clear
9:55 PM 52.5 °F 31.3 °F 44% 29.91 in 10.0 mi SSW 4.6 mph - N/A   Clear
10:15 PM 51.4 °F 31.1 °F 46% 29.91 in 10.0 mi Calm Calm - N/A   Clear
10:35 PM 50.0 °F 30.9 °F 48% 29.91 in 10.0 mi SSW 3.5 mph - N/A   Clear
10:55 PM 50.0 °F 31.1 °F 48% 29.91 in 10.0 mi SSW 3.5 mph - N/A   Clear
11:15 PM 50.0 °F 31.8 °F 50% 29.91 in 10.0 mi SSW 3.5 mph - N/A   Clear
11:35 PM 50.0 °F 32.0 °F 50% 29.90 in 10.0 mi Calm Calm - N/A   Clear
11:55 PM 50.0 °F 32.2 °F 50% 29.90 in 10.0 mi Calm Calm - N/A   Clear